{"data":{"norad_id":59947,"intl_designator":"2024-107C","name":"STARLINK-11113 [DTC]","alt_names":[],"object_type":"PAYLOAD","status":"ACTIVE","operator":null,"country":"US","launch_date":"2024-06-05","launch_site_code":"AFETR","launch_vehicle":null,"mission":null,"orbit_class":"UNKNOWN","rcs_meters":null,"size_class":null,"mass_kg":null,"dimensions":null,"purposes":["comms"],"wikipedia_slug":null,"has_3d_model":false,"image_url":null,"decayed_at":null,"tle_current":{"epoch":"2026-05-24T23:34:55.473600Z","epoch_age_seconds":70416,"freshness":"FRESH","line1":"1 59947U 24107C   26144.98258650  .00000368  00000+0  78978-5 0  9998","line2":"2 59947  53.1597 234.7918 0001390  65.1791 294.9371 15.69706194114135","mean_motion":15.69706194,"eccentricity":0.000139,"inclination_deg":53.1597,"raan_deg":234.7918,"arg_perigee_deg":65.1791,"mean_anomaly_deg":294.9371,"bstar":7.8978e-6,"rev_number":11413,"period_min":91.736912646724,"perigee_km":358.80107718172,"apogee_km":360.67420633213,"semimajor_km":6737.8746417569,"source":"CELESTRAK","updated_at":"2026-05-25T13:38:19.127302Z"}}}